Regional Weather Roundup
Issued by NWS

Home | Current Version | Previous Version | Text Only | Print | Product List | Glossary On
Versions: 1 2 3 4 5 6 7 8 9 10 11 12 13 14 15 16 17 18 19 20 21 22 23 24 25 26 27 28 29 30 31 32 33 34 35 36 37 38 39 40 41 42 43 44 45 46 47 48 49 50
000
ASUS45 KSLC 280110
RWRUT

UTAH REGIONAL WEATHER ROUNDUP
NATIONAL WEATHER SERVICE SALT LAKE CITY UT
600 PM MST SAT DEC 27 2014

UTZ001>011-023>025-280200-

NORTHERN UTAH

CITY           SKY/WX    TMP DP  RH WIND       PRES   REMARKS
BRIGHAM CITY   CLOUDY    25  16  68 CALM      30.32S
HILL AFB       CLOUDY    22  14  72 S9        30.29F WCI  12
LOGAN          CLOUDY    18  12  77 CALM      30.29F
OGDEN          CLOUDY    25  17  72 SE5       30.30S WCI  19
PROVO AIRPORT  MOCLDY    21  14  73 CALM      30.33S
SALT LAKE CITY CLOUDY    25  15  66 S7        30.32S WCI  17
VERNAL         PTCLDY    15  10  80 NW3       30.28R
WENDOVER       CLOUDY    30  16  55 S6        30.29F WCI  24
HEBER CITY     CLOUDY    14   9  79 CALM      30.27R
WEST JORDAN    PTCLDY    23  18  80 S10       30.32R WCI  12

$$

UTZ012>022-026-027-280200-

SOUTHERN/CENTRAL UTAH

CITY           SKY/WX    TMP DP  RH WIND       PRES   REMARKS
BLANDING       MOCLDY    25  10  54 NE6       30.32R WCI  18
BRYCE CANYON   CLOUDY    16   7  67 CALM      30.22R
CEDAR CITY     MOCLDY    17   9  70 CALM      30.27S
DELTA          CLOUDY    22  17  78 E3        30.32R
MILFORD        CLOUDY    20  14  77 W7        30.30R WCI  11
MOAB/CYNLANDS  CLEAR     19   9  65 CALM      30.31R
PRICE          CLOUDY    24   7  48 E6        30.24R WCI  17
ST GEORGE      CLOUDY    39   5  24 CALM      30.37R
KANAB          MOCLDY    30  10  43 CALM      30.33R

$$

REGIONAL REPORTS     COLORADO/ARIZONA

CITY           SKY/WX    TMP DP  RH WIND       PRES   REMARKS
CRAIG, CO      MOCLDY     4  -1  80 CALM      30.23R
GRAND JUNCTION PTCLDY    20  12  71 N7        30.30R WCI  11
RIFLE          CLOUDY    15   7  70 S5        30.29R WCI   8
MONTROSE       PTCLDY    21  12  68 S5        30.29R WCI  15
CORTEZ         CLEAR     22   8  55 CALM      30.25R
PAGE, AZ       PTCLDY    33   7  33 CALM      30.30R
GRAND CANYON   PTCLDY    22  11  62 CALM      30.26R
KINGMAN        PTCLDY    30  10  43 CALM      30.31R
FLAGSTAFF      PTCLDY    22   8  55 E3        30.23R

$$

REGIONAL REPORTS    NEVADA/IDAHO/WYOMING

CITY           SKY/WX    TMP DP  RH WIND       PRES   REMARKS
LAS VEGAS, NV  PTCLDY    44   6  21 SE6       30.31S
ELY            MOCLDY    20  10  65 SE6       30.23S WCI  12
ELKO           CLOUDY    27  17  66 SW3       30.25S
POCATELLO, ID  CLOUDY    26  18  71 S14       30.22F WCI  14
BURLEY         CLOUDY    28  16  60 S14       30.21F WCI  17
EVANSTON, WY   MOCLDY    11   5  77 SW7       30.17S WCI   0
ROCK SPRINGS   MOCLDY    14   7  73 SW10      30.15R WCI   1

$$



USA.gov is the U.S. government's official web portal to all federal, state and local government web resources and services.